{"data":{"norad_id":52284,"intl_designator":"2022-041Z","name":"STARLINK-3561","alt_names":[],"object_type":"PAYLOAD","status":"ACTIVE","operator":null,"country":"US","launch_date":"2022-04-21","launch_site_code":"AFETR","launch_vehicle":null,"mission":null,"orbit_class":"UNKNOWN","rcs_meters":null,"size_class":null,"mass_kg":null,"dimensions":null,"purposes":["comms"],"wikipedia_slug":null,"has_3d_model":false,"image_url":null,"decayed_at":null,"tle_current":{"epoch":"2026-05-25T05:11:40.972416Z","epoch_age_seconds":49504,"freshness":"FRESH","line1":"1 52284U 22041Z   26145.21644644 -.00001643  00000+0 -85120-4 0  9994","line2":"2 52284  53.2138 115.5751 0001311  68.2170 291.8961 15.08847171226053","mean_motion":15.08847171,"eccentricity":0.0001311,"inclination_deg":53.2138,"raan_deg":115.5751,"arg_perigee_deg":68.217,"mean_anomaly_deg":291.8961,"bstar":-8.512e-5,"rev_number":22605,"period_min":95.437101097895,"perigee_km":538.81453892728,"apogee_km":540.62840141816,"semimajor_km":6917.8584701727,"source":"CELESTRAK","updated_at":"2026-05-25T13:38:17.084646Z"}}}